Belleville, IL

6:48 AM CDT on June 25, 2017 (GMT -0500)
Scott Air Force Base-Midamerica

Weather History for KBLV - October, 2012

Change the Weather History Date:

Friday, October 5, 2012

  Actual Average Record
Temperature  
Mean Temperature 46 °F -  
Max Temperature 52 °F 75 °F 91 °F (1954)
Min Temperature 39 °F 47 °F 30 °F (1968)
Degree Days  
Heating Degree Days 19    
Moisture  
Dew Point 45 °F    
Average Humidity 96    
Maximum Humidity 100    
Minimum Humidity 77    
Precipitation  
Precipitation 1.35 in - - ()
Sea Level Pressure  
Sea Level Pressure 30.18 in    
Wind  
Wind Speed 7 mph (North)    
Max Wind Speed 17 mph    
Max Gust Speed 21 mph    
Visibility 7 miles    
Events Rain , Thunderstorm    
Averages and records for this station are not official NWS values.
T = Trace of Precipitation, MM = Missing Value Source: NWS Daily Summary

Daily Weather History Graph

Daily Weather History Graph

Search for Another Location

Airport or City:

Trip Planner

Search our weather history database for the weather conditions in past years. The results will help you decide how hot, cold, wet, or windy it might be!

Date:

Astronomy

Oct. 05, 2012 Rise Set
Actual Time 6:59 AM CDT 6:35 PM CDT
Civil Twilight 6:32 AM CDT 7:01 PM CDT
Nautical Twilight 6:02 AM CDT 7:32 PM CDT
Astronomical Twilight 5:31 AM CDT 8:03 PM CDT
Moon 10:02 PM CDT (10/5) 12:03 PM CDT (10/5)
Length of Visible Light 12h 28m
Length of Day
11h 35m
Waning Gibbous, 74% of the Moon is Illuminated
Oct 5
Waning Gibbous
Oct 8
Last Quarter
Oct 15
New
Oct 21
First Quarter
Oct 29
Full

Hourly Weather History & Observations

Time (CDT) Temp. Windchill Dew Point Humidity Pressure Visibility Wind Dir Wind Speed Gust Speed Precip Events Conditions
12:55 AM 52.5 °F - 47.7 °F 84% 30.18 in 10.0 mi North 5.8 mph - N/A   Clear
1:55 AM 50.4 °F - 47.8 °F 91% 30.19 in 10.0 mi NW 5.8 mph - N/A   Clear
2:55 AM 52.0 °F - 47.8 °F 86% 30.19 in 10.0 mi North 5.8 mph - N/A   Mostly Cloudy
3:55 AM 52.0 °F - 45.0 °F 77% 30.19 in 10.0 mi NNW 9.2 mph - N/A   Mostly Cloudy
4:55 AM 51.3 °F - 44.4 °F 77% 30.20 in 10.0 mi North 8.1 mph - N/A   Clear
5:55 AM 51.1 °F - 44.6 °F 78% 30.20 in 10.0 mi North 6.9 mph - N/A   Overcast
6:55 AM 50.4 °F - 45.0 °F 82% 30.19 in 10.0 mi NNE 5.8 mph - N/A   Mostly Cloudy
7:55 AM 50.7 °F - 45.5 °F 82% 30.21 in 10.0 mi North 9.2 mph - N/A   Mostly Cloudy
8:11 AM 50.0 °F - 46.4 °F 87% 30.19 in 10.0 mi North 6.9 mph - N/A Rain Light Rain
8:33 AM 50.0 °F - 46.4 °F 87% 30.21 in 5.0 mi North 8.1 mph - N/A Rain Heavy Rain
8:55 AM 49.3 °F - 47.5 °F 94% 30.22 in 6.0 mi North 5.8 mph - 0.04 in Rain Light Rain
9:43 AM 48.2 °F - 48.2 °F 100% 30.20 in 10.0 mi North 6.9 mph - N/A Rain Light Rain
9:55 AM 49.6 °F - 48.6 °F 96% 30.20 in 10.0 mi North 6.9 mph - 0.02 in   Light Drizzle
10:11 AM 48.2 °F - 46.4 °F 93% 30.20 in 10.0 mi NNE 8.1 mph - N/A Rain Light Rain
10:22 AM 48.2 °F - 46.4 °F 93% 30.20 in 10.0 mi NNE 6.9 mph - N/A   Overcast
10:25 AM 48.2 °F - 46.4 °F 93% 30.20 in 10.0 mi North 5.8 mph - N/A Rain Light Rain
10:55 AM 47.8 °F - 47.3 °F 98% 30.21 in 10.0 mi North 8.1 mph - 0.00 in Rain Light Rain
10:57 AM 48.2 °F - 46.4 °F 93% 30.20 in 10.0 mi North 8.1 mph - N/A   Light Drizzle
11:03 AM 48.2 °F - 46.4 °F 93% 30.21 in 10.0 mi North 6.9 mph - N/A Rain , Thunderstorm Light Rain
11:26 AM 46.4 °F 42.4 °F 46.4 °F 100% 30.19 in 5.0 mi North 8.1 mph - N/A Rain , Thunderstorm Light Thunderstorms and Rain
11:33 AM 46.4 °F 42.9 °F 46.4 °F 100% 30.20 in 7.0 mi North 6.9 mph - N/A Rain , Thunderstorm Light Thunderstorms and Rain
11:41 AM 46.4 °F 42.4 °F 46.4 °F 100% 30.20 in 3.0 mi North 8.1 mph - N/A Rain , Thunderstorm Heavy Rain
11:42 AM 46.4 °F 42.4 °F 46.4 °F 100% 30.20 in 2.5 mi North 8.1 mph - N/A Rain , Thunderstorm Heavy Rain
11:43 AM 46.4 °F 42.9 °F 46.4 °F 100% 30.20 in 2.5 mi North 6.9 mph - N/A Rain , Thunderstorm Heavy Rain
11:44 AM 46.4 °F 42.9 °F 46.4 °F 100% 30.20 in 2.5 mi North 6.9 mph - N/A Rain , Thunderstorm Heavy Thunderstorms and Rain
11:55 AM 46.8 °F - 46.6 °F 99% 30.19 in 2.5 mi North 8.1 mph - 0.13 in Rain , Thunderstorm Thunderstorms and Rain
11:59 AM 46.4 °F 41.9 °F 46.4 °F 100% 30.20 in 8.0 mi North 9.2 mph - N/A Rain Light Rain
12:09 PM 46.4 °F 41.9 °F 46.4 °F 100% 30.18 in 10.0 mi North 9.2 mph - N/A Rain Light Rain
12:16 PM 46.4 °F 41.9 °F 46.4 °F 100% 30.20 in 7.0 mi North 9.2 mph - N/A Rain Rain
12:23 PM 46.4 °F 41.9 °F 46.4 °F 100% 30.20 in 6.0 mi North 9.2 mph - N/A Rain , Thunderstorm Thunderstorms and Rain
12:52 PM 44.6 °F 39.7 °F 44.6 °F 100% 30.16 in 3.0 mi North 9.2 mph - N/A Rain , Thunderstorm Heavy Thunderstorms and Rain
12:55 PM 45.3 °F 39.3 °F 45.1 °F 99% 30.17 in 4.0 mi North 12.7 mph - 0.16 in Rain , Thunderstorm Heavy Thunderstorms and Rain
12:56 PM 44.6 °F 39.7 °F 44.6 °F 100% 30.17 in 3.0 mi North 9.2 mph - N/A Rain Rain
1:07 PM 44.6 °F 39.7 °F 44.6 °F 100% 30.17 in 5.0 mi North 9.2 mph - N/A Rain , Thunderstorm Light Thunderstorms and Rain
1:21 PM 44.6 °F 38.1 °F 44.6 °F 100% 30.15 in 10.0 mi North 13.8 mph - N/A Rain , Thunderstorm Light Thunderstorms and Rain
1:22 PM 44.6 °F 38.1 °F 44.6 °F 100% 30.16 in 10.0 mi North 13.8 mph - N/A Rain , Thunderstorm Light Rain
1:23 PM 44.6 °F 38.1 °F 44.6 °F 100% 30.16 in 10.0 mi North 13.8 mph - N/A Rain , Thunderstorm Light Thunderstorms and Rain
1:36 PM 44.6 °F 40.7 °F 44.6 °F 100% 30.17 in 1.2 mi North 6.9 mph - N/A Rain , Thunderstorm Heavy Thunderstorms and Rain
1:37 PM 44.6 °F 40.7 °F 44.6 °F 100% 30.17 in 1.0 mi North 6.9 mph - N/A Rain , Thunderstorm Heavy Thunderstorms and Rain
1:38 PM 44.6 °F 40.7 °F 44.6 °F 100% 30.17 in 1.0 mi Variable 6.9 mph - N/A Rain , Thunderstorm Heavy Rain
1:41 PM 44.6 °F 42.2 °F 44.6 °F 100% 30.17 in 0.8 mi Variable 4.6 mph - N/A Rain Heavy Rain
1:51 PM 44.6 °F 41.4 °F 44.6 °F 100% 30.16 in 0.8 mi NNE 5.8 mph - N/A Rain Heavy Rain
1:52 PM 44.6 °F 41.4 °F 44.6 °F 100% 30.16 in 1.0 mi NNE 5.8 mph - N/A Rain Heavy Rain
1:55 PM 44.4 °F 40.5 °F 44.1 °F 99% 30.17 in 0.8 mi North 6.9 mph - 0.45 in Rain Heavy Rain
1:56 PM 44.6 °F 40.7 °F 44.6 °F 100% 30.16 in 1.5 mi NNE 6.9 mph - N/A Rain Rain
2:02 PM 44.6 °F 41.4 °F 44.6 °F 100% 30.16 in 3.0 mi NNE 5.8 mph - N/A Rain Light Rain
2:06 PM 44.6 °F 40.7 °F 44.6 °F 100% 30.15 in 2.5 mi North 6.9 mph - N/A Rain Heavy Rain
2:11 PM 44.6 °F 41.4 °F 44.6 °F 100% 30.16 in 3.0 mi North 5.8 mph - N/A Rain Light Rain
2:30 PM 44.6 °F 41.4 °F 44.6 °F 100% 30.17 in 4.0 mi NNW 5.8 mph - N/A Rain , Thunderstorm Rain
2:37 PM 44.6 °F 40.7 °F 44.6 °F 100% 30.18 in 5.0 mi NW 6.9 mph - N/A Rain , Thunderstorm Light Rain
2:42 PM 44.6 °F 40.7 °F 44.6 °F 100% 30.16 in 2.5 mi NNW 6.9 mph - N/A Rain , Thunderstorm Rain
2:55 PM 45.0 °F 41.8 °F 44.8 °F 99% 30.14 in 1.0 mi North 5.8 mph - 0.26 in Rain , Thunderstorm Heavy Thunderstorms and Rain
2:58 PM 44.6 °F 40.2 °F 44.6 °F 100% 30.16 in 2.0 mi North 8.1 mph - N/A Rain , Thunderstorm Light Thunderstorms and Rain
2:59 PM 44.6 °F 39.7 °F 44.6 °F 100% 30.16 in 2.5 mi North 9.2 mph - N/A Rain , Thunderstorm Light Rain
3:06 PM 44.6 °F 40.2 °F 44.6 °F 100% 30.16 in 9.0 mi North 8.1 mph - N/A Rain Light Rain
3:18 PM 44.6 °F 41.4 °F 44.6 °F 100% 30.16 in 10.0 mi NNW 5.8 mph - N/A Rain Light Rain
3:43 PM 44.6 °F 41.4 °F 44.6 °F 100% 30.15 in 10.0 mi North 5.8 mph - N/A   Light Drizzle
3:51 PM 44.6 °F 40.2 °F 44.6 °F 100% 30.17 in 10.0 mi NNW 8.1 mph - N/A Rain Light Rain
3:55 PM 45.3 °F 41.6 °F 45.1 °F 99% 30.16 in 10.0 mi North 6.9 mph - 0.05 in   Overcast
4:00 PM 46.4 °F 40.7 °F 44.6 °F 93% 30.19 in 7.0 mi NW 12.7 mph - N/A Rain Light Rain
4:14 PM 44.6 °F 37.2 °F 44.6 °F 100% 30.17 in 6.0 mi North 17.3 mph - N/A Rain Rain
4:27 PM 44.6 °F 39.7 °F 42.8 °F 93% 30.15 in 6.0 mi NNE 9.2 mph 20.7 mph N/A Rain Light Rain
4:55 PM 44.2 °F 39.7 °F 43.3 °F 97% 30.17 in 10.0 mi North 8.1 mph - 0.09 in Rain Light Rain
5:15 PM 44.6 °F 41.4 °F 44.6 °F 100% 30.21 in 3.0 mi NW 5.8 mph - N/A Rain , Thunderstorm Light Rain
5:38 PM 44.6 °F 38.8 °F 44.6 °F 100% 30.19 in 9.0 mi NNW 11.5 mph - N/A Rain , Thunderstorm Light Thunderstorms and Rain
5:39 PM 44.6 °F 38.1 °F 44.6 °F 100% 30.19 in 10.0 mi NNW 13.8 mph - N/A Rain , Thunderstorm Light Rain
5:55 PM 44.2 °F 39.2 °F 43.3 °F 97% 30.19 in 10.0 mi NNW 9.2 mph - 0.08 in Rain Light Rain
6:08 PM 44.6 °F 39.2 °F 42.8 °F 93% 30.19 in 10.0 mi NNW 10.4 mph - N/A Rain Light Rain
6:55 PM 43.9 °F 39.3 °F 42.3 °F 94% 30.19 in 10.0 mi NNW 8.1 mph - 0.05 in Rain , Thunderstorm Light Rain
6:56 PM 44.6 °F 40.7 °F 42.8 °F 93% 30.19 in 10.0 mi NNW 6.9 mph - N/A Thunderstorm Overcast
7:25 PM 44.6 °F 42.2 °F 41.0 °F 87% 30.18 in 10.0 mi NNW 4.6 mph - N/A Rain Light Rain
7:26 PM 44.6 °F 42.2 °F 41.0 °F 87% 30.19 in 10.0 mi NNW 4.6 mph - N/A Rain Light Rain
7:55 PM 43.9 °F 42.3 °F 42.4 °F 95% 30.18 in 10.0 mi NW 3.5 mph - 0.02 in Rain Light Rain
8:55 PM 43.9 °F 40.5 °F 42.1 °F 93% 30.20 in 10.0 mi NW 5.8 mph - N/A   Mostly Cloudy
9:55 PM 41.7 °F 39.8 °F 41.5 °F 99% 30.21 in 10.0 mi NW 3.5 mph - N/A   Clear
10:55 PM 40.8 °F 35.6 °F 39.0 °F 93% 30.22 in 10.0 mi NW 8.1 mph - N/A   Clear
11:55 PM 39.6 °F 34.7 °F 37.4 °F 92% 30.22 in 10.0 mi NW 6.9 mph - N/A   Clear